This is the latest recevied weather packets stored in our database for station/object KK7KHO. If no packets are shown the sender has not sent any weather packets the latest 10 day(s).
| Time | Temp. | Humidity | Pressure | Rain* | Wind** | Luminosity | Snow |
|---|---|---|---|---|---|---|---|
| 1777766860 | 22.78° C | 58% | 1013 hPa | 0 mm | - | 335 W/m² | - |
| 1777766557 | 22.78° C | 57% | 1013.1 hPa | 0 mm | - | 347 W/m² | - |
| 1777766254 | 22.22° C | 56% | 1013 hPa | 0 mm | - | 358 W/m² | - |
| 1777765952 | 22.78° C | 55% | 1013.1 hPa | 0 mm | - | 370 W/m² | - |
| 1777765647 | 22.78° C | 55% | 1013.2 hPa | 0 mm | - | 383 W/m² | - |
| 1777765345 | 22.78° C | 55% | 1013.1 hPa | 0 mm | - | 394 W/m² | - |
| 1777765041 | 23.33° C | 54% | 1013.1 hPa | 0 mm | - | 406 W/m² | - |
| 1777764738 | 23.33° C | 53% | 1013.4 hPa | 0 mm | - | 418 W/m² | - |
| 1777764433 | 23.33° C | 54% | 1013.4 hPa | 0 mm | - | 429 W/m² | - |
| 1777764131 | 22.78° C | 53% | 1013.3 hPa | 0 mm | - | 441 W/m² | - |
| 1777763827 | 22.78° C | 55% | 1013.4 hPa | 0 mm | - | 452 W/m² | - |
| 1777763525 | 22.78° C | 56% | 1013.5 hPa | 0 mm | - | 463 W/m² | - |
| 1777763224 | 23.33° C | 54% | 1013.4 hPa | 0 mm | - | 473 W/m² | - |
| 1777762922 | 23.33° C | 55% | 1013.7 hPa | 0 mm | - | 482 W/m² | - |
| 1777762617 | 22.78° C | 55% | 1013.7 hPa | 0 mm | - | 492 W/m² | - |
| 1777762315 | 22.78° C | 57% | 1013.6 hPa | 0 mm | - | 503 W/m² | - |
| 1777762011 | 22.78° C | 57% | 1013.5 hPa | 0 mm | - | 512 W/m² | - |
| 1777761708 | 22.22° C | 58% | 1013.8 hPa | 0 mm | - | 522 W/m² | - |
| 1777761405 | 22.22° C | 60% | 1013.7 hPa | 0 mm | - | 531 W/m² | - |
| 1777761103 | 22.78° C | 59% | 1013.9 hPa | 0 mm | - | 539 W/m² | - |
| 1777760801 | 22.78° C | 61% | 1014 hPa | 0 mm | - | 546 W/m² | - |
| 1777760497 | 22.22° C | 62% | 1013.9 hPa | 0 mm | - | 555 W/m² | - |
| 1777760192 | 21.67° C | 63% | 1014.1 hPa | 0 mm | - | 562 W/m² | - |
| 1777759889 | 22.22° C | 62% | 1014.3 hPa | 0 mm | - | 570 W/m² | - |
| 1777759586 | 22.22° C | 64% | 1014.4 hPa | 0 mm | - | 577 W/m² | - |
* Rain latest hour (hover to see other rain measurements)
** Current wind speed in m/s (hover to see current wind gust speed)